Hourly Weather Bolshie Klyuchi

Today, 17 June, Thursday

Time Temperature Precipitation Wind Pressure Humidity
00:00 +13°C° 0 mm 4 mps 746 mmHg 92%
01:00 +12°C° 0 mm 4 mps 746 mmHg 92%
02:00 +11°C° 0 mm 3 mps 747 mmHg 92%
03:00 +11°C° 0 mm 3 mps 747 mmHg 92%
04:00 +12°C° 0 mm 3 mps 748 mmHg 89%
05:00 +13°C° 0 mm 3 mps 748 mmHg 86%
06:00 +14°C° 0 mm 3 mps 748 mmHg 83%
07:00 +16°C° 0 mm 3 mps 749 mmHg 75%
08:00 +18°C° 0 mm 3 mps 749 mmHg 68%
09:00 +19°C° 0 mm 3 mps 749 mmHg 61%
10:00 +20°C° 0 mm 4 mps 749 mmHg 56%
11:00 +20°C° 0 mm 4 mps 749 mmHg 52%
12:00 +21°C° 0 mm 4 mps 750 mmHg 48%
13:00 +21°C° 0 mm 4 mps 750 mmHg 50%
14:00 +21°C° 0 mm 3 mps 750 mmHg 52%
15:00 +20°C° 0 mm 3 mps 750 mmHg 55%
16:00 +20°C° 0 mm 4 mps 750 mmHg 58%
17:00 +19°C° 0 mm 4 mps 751 mmHg 61%
18:00 +17°C° 0 mm 5 mps 751 mmHg 64%
19:00 +15°C° 0 mm 4 mps 751 mmHg 68%
20:00 +14°C° 0 mm 4 mps 752 mmHg 72%
21:00 +12°C° 0 mm 3 mps 752 mmHg 77%
22:00 +11°C° 0 mm 3 mps 753 mmHg 76%
23:00 +10°C° 0 mm 3 mps 753 mmHg 75%

Tomorrow, 18 June, Friday

Time Temperature Precipitation Wind Pressure Humidity
00:00 +9°C° 0 mm 3 mps 754 mmHg 74%
01:00 +9°C° 0 mm 3 mps 754 mmHg 76%
02:00 +8°C° 0 mm 3 mps 754 mmHg 77%
03:00 +8°C° 0 mm 3 mps 755 mmHg 79%
04:00 +9°C° 0 mm 3 mps 755 mmHg 76%
05:00 +10°C° 0 mm 4 mps 756 mmHg 73%
06:00 +11°C° 0 mm 4 mps 756 mmHg 69%
07:00 +12°C° 0 mm 4 mps 756 mmHg 65%
08:00 +14°C° 0 mm 4 mps 756 mmHg 60%
09:00 +15°C° 0 mm 5 mps 756 mmHg 56%
10:00 +17°C° 0 mm 4 mps 756 mmHg 53%
11:00 +18°C° 0 mm 4 mps 757 mmHg 50%
12:00 +19°C° 0 mm 4 mps 757 mmHg 48%
13:00 +19°C° 0 mm 4 mps 756 mmHg 47%
14:00 +20°C° 0 mm 4 mps 756 mmHg 47%
15:00 +20°C° 0 mm 3 mps 756 mmHg 46%
16:00 +20°C° 0 mm 3 mps 756 mmHg 52%
17:00 +20°C° 0 mm 2 mps 756 mmHg 58%
18:00 +19°C° 0 mm 2 mps 755 mmHg 64%
19:00 +18°C° 0 mm 2 mps 755 mmHg 67%
20:00 +17°C° 0 mm 3 mps 755 mmHg 69%
21:00 +14°C° 0 mm 3 mps 755 mmHg 72%
22:00 +14°C° 0 mm 3 mps 755 mmHg 71%
23:00 +13°C° 0 mm 4 mps 755 mmHg 70%

Day after tomorrow, 19 June, Saturday

Time Temperature Precipitation Wind Pressure Humidity
00:00 +13°C° 0 mm 4 mps 755 mmHg 70%
01:00 +13°C° 0 mm 4 mps 755 mmHg 74%
02:00 +12°C° 0 mm 4 mps 755 mmHg 78%
03:00 +12°C° 0 mm 4 mps 755 mmHg 83%
04:00 +13°C° 0 mm 4 mps 755 mmHg 83%
05:00 +15°C° 0 mm 5 mps 755 mmHg 83%
06:00 +16°C° 0 mm 5 mps 755 mmHg 83%
07:00 +19°C° 0 mm 5 mps 754 mmHg 78%
08:00 +20°C° 0 mm 6 mps 754 mmHg 73%
09:00 +22°C° 0 mm 6 mps 754 mmHg 69%
10:00 +23°C° 0 mm 7 mps 753 mmHg 65%
11:00 +26°C° 0 mm 7 mps 753 mmHg 62%
12:00 +27°C° 0 mm 7 mps 753 mmHg 58%
13:00 +27°C° 0 mm 7 mps 752 mmHg 59%
14:00 +28°C° 0 mm 7 mps 752 mmHg 59%
15:00 +28°C° 0 mm 6 mps 752 mmHg 60%
16:00 +28°C° 0 mm 6 mps 752 mmHg 62%
17:00 +27°C° 0 mm 5 mps 752 mmHg 64%
18:00 +26°C° 0 mm 5 mps 751 mmHg 67%
19:00 +25°C° 0 mm 5 mps 751 mmHg 72%
20:00 +22°C° 0 mm 4 mps 752 mmHg 77%
21:00 +20°C° 0 mm 4 mps 752 mmHg 82%
22:00 +20°C° 0 mm 4 mps 752 mmHg 84%
23:00 +19°C° 0 mm 4 mps 752 mmHg 85%

20 June, Sunday

Time Temperature Precipitation Wind Pressure Humidity
00:00 +19°C° 0 mm 4 mps 752 mmHg 86%
01:00 +18°C° 0 mm 4 mps 752 mmHg 88%
02:00 +18°C° 0 mm 4 mps 752 mmHg 90%
03:00 +17°C° 0 mm 4 mps 752 mmHg 92%
04:00 +18°C° 0 mm 4 mps 752 mmHg 88%
05:00 +20°C° 0 mm 4 mps 753 mmHg 84%
06:00 +21°C° 0 mm 4 mps 753 mmHg 81%
07:00 +22°C° 0 mm 4 mps 753 mmHg 76%
08:00 +25°C° 0 mm 4 mps 753 mmHg 71%
09:00 +26°C° 0 mm 4 mps 753 mmHg 66%
10:00 +27°C° 0 mm 4 mps 753 mmHg 63%
11:00 +28°C° 0 mm 4 mps 753 mmHg 60%
12:00 +29°C° 0 mm 4 mps 753 mmHg 57%
13:00 +29°C° 0 mm 4 mps 753 mmHg 55%
14:00 +30°C° 0 mm 4 mps 753 mmHg 54%
15:00 +30°C° 0 mm 3 mps 753 mmHg 52%
16:00 +29°C° 0 mm 3 mps 753 mmHg 57%
17:00 +28°C° 0 mm 3 mps 752 mmHg 63%
18:00 +27°C° 0 mm 2 mps 752 mmHg 68%
19:00 +26°C° 0 mm 2 mps 752 mmHg 69%
20:00 +25°C° 0 mm 2 mps 752 mmHg 70%
21:00 +24°C° 0 mm 2 mps 752 mmHg 71%
22:00 +23°C° 0 mm 2 mps 752 mmHg 74%
23:00 +21°C° 0 mm 3 mps 752 mmHg 76%

21 June, Monday

Time Temperature Precipitation Wind Pressure Humidity
00:00 +20°C° 0 mm 3 mps 752 mmHg 79%
01:00 +20°C° 0 mm 3 mps 752 mmHg 80%
02:00 +20°C° 0 mm 3 mps 753 mmHg 81%
03:00 +19°C° 0 mm 3 mps 753 mmHg 83%
04:00 +20°C° 0 mm 3 mps 753 mmHg 81%
05:00 +21°C° 0 mm 3 mps 753 mmHg 80%
06:00 +22°C° 0 mm 3 mps 753 mmHg 79%
07:00 +24°C° 0 mm 3 mps 753 mmHg 75%
08:00 +25°C° 0 mm 3 mps 753 mmHg 70%
09:00 +27°C° 0 mm 4 mps 753 mmHg 65%
10:00 +27°C° 0 mm 4 mps 752 mmHg 62%
11:00 +28°C° 0 mm 4 mps 752 mmHg 60%
12:00 +29°C° 0 mm 4 mps 752 mmHg 57%
13:00 +29°C° 0 mm 4 mps 752 mmHg 56%
14:00 +29°C° 0 mm 4 mps 752 mmHg 56%
15:00 +29°C° 0 mm 4 mps 752 mmHg 55%
16:00 +29°C° 0 mm 4 mps 751 mmHg 59%
17:00 +28°C° 0 mm 3 mps 751 mmHg 63%
18:00 +27°C° 0 mm 3 mps 751 mmHg 67%
19:00 +26°C° 0 mm 3 mps 751 mmHg 68%
20:00 +24°C° 0 mm 3 mps 751 mmHg 69%
21:00 +22°C° 0 mm 3 mps 751 mmHg 69%
22:00 +21°C° 0 mm 3 mps 751 mmHg 72%
23:00 +20°C° 0 mm 3 mps 751 mmHg 75%

22 June, Tuesday

Time Temperature Precipitation Wind Pressure Humidity
00:00 +20°C° 0 mm 3 mps 751 mmHg 78%
01:00 +19°C° 0.1 mm 3 mps 751 mmHg 81%
02:00 +19°C° 0.1 mm 3 mps 751 mmHg 84%
03:00 +18°C° 0.1 mm 3 mps 751 mmHg 87%
04:00 +20°C° 0.1 mm 3 mps 751 mmHg 85%
05:00 +21°C° 0.1 mm 3 mps 751 mmHg 84%
06:00 +22°C° 0.1 mm 3 mps 751 mmHg 82%
07:00 +24°C° 0 mm 3 mps 751 mmHg 77%
08:00 +26°C° 0 mm 3 mps 751 mmHg 72%
09:00 +27°C° 0 mm 4 mps 751 mmHg 67%
10:00 +28°C° 0 mm 3 mps 751 mmHg 63%
11:00 +29°C° 0 mm 3 mps 751 mmHg 60%
12:00 +30°C° 0 mm 3 mps 751 mmHg 56%
13:00 +30°C° 0 mm 3 mps 751 mmHg 54%
14:00 +30°C° 0 mm 3 mps 751 mmHg 52%
15:00 +31°C° 0 mm 3 mps 751 mmHg 51%
16:00 +29°C° 0.1 mm 3 mps 751 mmHg 60%
17:00 +27°C° 0.1 mm 3 mps 751 mmHg 69%
18:00 +25°C° 0.1 mm 3 mps 751 mmHg 79%
19:00 +24°C° 0 mm 2 mps 751 mmHg 79%
20:00 +23°C° 0 mm 2 mps 751 mmHg 79%
21:00 +23°C° 0 mm 2 mps 751 mmHg 79%
22:00 +21°C° 0 mm 2 mps 751 mmHg 79%
23:00 +21°C° 0 mm 2 mps 751 mmHg 80%
Show more